Showing default

AISTECHSAT-2, 43768

Orbit data source: Space-Track

AISTECHSAT-2, 43768 is a payload satellite owned by AISTech (ES) in SSO that was launched on Mon, 03 Dec 2018 UTC via an FALCON 9 launch vehicle from the Air Force Western Test Range (AFWTR). Payload-class satellites include a variety of spacecraft equipped with specific instruments for various scientific and technological missions. These include communications satellites like Starlink; space stations such as the ISS; scientific satellites like the Hubble; Earth observation satellites from companies like Planet Labs, Umbra, and HawkEye 360; GPS; miniature CubeSats for education and research; and military/defense satellites.

Loading next visibility...
Identifier
43768, 2018-099L
Orbit
SSO
Country
Flag of ESES / SPN
Related business
Manufacturer
AISTech
Mission
Operational Commercial Communications
Bus & Motor
CUBESAT 6U, Unknown motor
Mass
10 kg wet, 10 kg dry
Launch date (UTC)
2018-12-03 (7 years ago)
Launch vehicle
FALCON 9
Launch site
Air Force Western Test Range (AFWTR)
Object type
Payload
Rocket body
Debris
Shape & HBR
Box + 3 Pan, 0.3 m
Radar Cross Section
0.054 m², Small (<0.1 m²)

Expand to show TLE details & history
Last TLE update: 15 hours ago

TLE from 15 hours ago
0 AISTECHSAT-2
1 43768U 18099L   25306.39939909  .00006490  00000-0  37863-3 0  9991
2 43768  97.4658 354.4185 0005370  23.3320 336.8154 15.12274239377965
Epoch: 2025-11-02T09:35Z
TLE epoch observation values (Epoch: 2025-11-02T09:35:08.081Z)
Latitude
0.00003°
Longitude
168.71914°
Altitude
528.934 km
Speed
7.6 km/s
True Right ascension
23h 37m 40s
True Declination
0° 00' 00"
Sunlit
Object was in full shadow at epoch
Visualization orbit readout
Latitude
Unknown
Longitude
Unknown
Altitude
Unknown
Speed
Unknown
Apparent Right ascension
Unknown
Apparent Declination
Unknown
Sunlit
N/A
Visualization observer readout
Local Sidereal Time
20:16:06
Azimuth
Unknown
Elevation
Unknown
Doppler factor
Unknown
Orbital elements
Apogee altitude
529.953 km
Perigee altitude
522.537 km
Semi-major axis
6,904.382 km
Eccentricity
0.00054
Inclination
97.4658°
RAAN
354.4185°
Arg. of periapsis
23.332°
True anomaly
336.79116°
Mean anomaly
336.8154°
Eccentric anomaly
336.80328°
Mean motion
3.78317 °/min
Orbital period
95.16 mins
BSTAR
0.00037863
Loading maneuver chart data...
Computing Atmospheric mass density...
Loading historical data...
Loading historical data...
Loading historical data...
Loading historical data...
Loading historical data...
Loading historical data...
Loading historical data...

Documentation

Showing up to 5 results
|